This is the latest recevied weather packets stored in our database for station/object KF4WSW-13. If no packets are shown the sender has not sent any weather packets the latest 10 day(s).
| Time | Temp. | Humidity | Pressure | Rain* | Wind** | Luminosity | Snow |
|---|---|---|---|---|---|---|---|
| 1777914055 | 25.56° C | 50% | 1014.7 hPa | 0 mm | - | 851 W/m² | - |
| 1777913750 | 25.56° C | 52% | 1014.8 hPa | 0 mm | - | 802 W/m² | - |
| 1777913447 | 25.56° C | 48% | 1015 hPa | 0 mm | - | 831 W/m² | - |
| 1777913144 | 25.56° C | 50% | 1014.9 hPa | 0 mm | - | 826 W/m² | - |
| 1777912840 | 25.56° C | 51% | 1015.1 hPa | 0 mm | - | 815 W/m² | - |
| 1777912537 | 25.56° C | 52% | 1015.2 hPa | 0 mm | - | 834 W/m² | - |
| 1777912233 | 25° C | 50% | 1015.2 hPa | 0 mm | - | 861 W/m² | - |
| 1777911929 | 25° C | 52% | 1015.1 hPa | 0 mm | - | 817 W/m² | - |
| 1777911626 | 25.56° C | 49% | 1015.3 hPa | 0 mm | - | 793 W/m² | - |
| 1777911322 | 25° C | 52% | 1015.3 hPa | 0 mm | - | 795 W/m² | - |
| 1777911020 | 25° C | 56% | 1015.4 hPa | 0 mm | - | 803 W/m² | - |
| 1777910717 | 24.44° C | 53% | 1015.2 hPa | 0 mm | - | 632 W/m² | - |
| 1777910414 | 24.44° C | 56% | 1015.5 hPa | 0 mm | - | 631 W/m² | - |
| 1777910110 | 24.44° C | 55% | 1015.6 hPa | 0 mm | - | 745 W/m² | - |
| 1777909808 | 24.44° C | 54% | 1015.5 hPa | 0 mm | - | 707 W/m² | - |
| 1777909504 | 24.44° C | 59% | 1015.6 hPa | 0 mm | - | 761 W/m² | - |
| 1777909202 | 24.44° C | 56% | 1015.7 hPa | 0 mm | - | 777 W/m² | - |
| 1777908899 | 24.44° C | 56% | 1015.4 hPa | 0 mm | - | 732 W/m² | - |
| 1777908597 | 23.89° C | 58% | 1015.7 hPa | 0 mm | - | 717 W/m² | - |
| 1777908293 | 24.44° C | 56% | 1015.5 hPa | 0 mm | - | 436 W/m² | - |
| 1777907989 | 24.44° C | 58% | 1015.5 hPa | 0 mm | - | 482 W/m² | - |
| 1777907685 | 24.44° C | 60% | 1015.7 hPa | 0 mm | - | 682 W/m² | - |
| 1777907381 | 23.89° C | 60% | 1015.8 hPa | 0 mm | - | 671 W/m² | - |
| 1777907077 | 23.89° C | 59% | 1015.8 hPa | 0 mm | - | 545 W/m² | - |
| 1777906775 | 23.89° C | 59% | 1015.6 hPa | 0 mm | - | 650 W/m² | - |
* Rain latest hour (hover to see other rain measurements)
** Current wind speed in m/s (hover to see current wind gust speed)